STARLINK-4709, 53778

Orbit data source: Space-Track

STARLINK-4709, 53778 is a payload satellite owned by SpaceX/Seattle (US) in LEO that was launched on Sun, 11 Sep 2022 UTC via an FALCON 9 launch vehicle from the Air Force Eastern Test Range (AFETR). Payload-class satellites include a variety of spacecraft equipped with specific instruments for various scientific and technological missions. These include communications satellites like Starlink; space stations such as the ISS; scientific satellites like the Hubble; Earth observation satellites from companies like Planet Labs, Umbra, and HawkEye 360; GPS; miniature CubeSats for education and research; and military/defense satellites.

Loading next visibility...
Identifier
53778, 2022-111F
Orbit
LEO
Country
Flag of USUS
Related business
Manufacturer
SpaceX/Seattle
Mission
Operational Commercial Communications
Bus & Motor
STARLINK, Unknown motor
Mass
305 kg wet, ~290 kg dry
Launch date (UTC)
2022-09-11 (4 years ago)
Launch vehicle
FALCON 9
Launch site
Air Force Eastern Test Range (AFETR)
Object type
Payload
Rocket body
Debris
Shape & HBR
Box + 1 Pan, 10.1 m
Radar Cross Section
13.562 m², Large (>1 m²)

Expand to show TLE details & history
Last TLE update: 12 hours ago

TLE from 12 hours ago
0 STARLINK-4709
1 53778U 22111F   26197.83335647 -.00022343  00000-0 -76398-3 0  9993
2 53778  53.1604  57.3971 0001265  92.3804  17.5028 15.29366904  5781
Epoch: 2026-07-16T20:00Z
TLE epoch observation values (Epoch: 2026-07-16T20:00:01.999Z)
Latitude
48.96283°
Longitude
-56.14427°
Altitude
482.461 km
Speed
7.631 km/s
True Right ascension
11h 54m 07s
True Declination
48° 47' 08"
Sunlit
Object was in daylight at epoch
Visualization orbit readout
Latitude
Unknown
Longitude
Unknown
Altitude
Unknown
Speed
Unknown
Apparent Right ascension
Unknown
Apparent Declination
Unknown
Sunlit
N/A
Visualization observer readout
Local Sidereal Time
20:53:02
Azimuth
Unknown
Elevation
Unknown
Doppler factor
Unknown
Orbital elements
Apogee altitude
478.827 km
Perigee altitude
477.093 km
Semi-major axis
6,856.097 km
Eccentricity
0.00013
Inclination
53.1604°
RAAN
57.3971°
Arg. of periapsis
92.3804°
True anomaly
17.50716°
Mean anomaly
17.5028°
Eccentric anomaly
17.50498°
Mean motion
3.82321 °/min
Orbital period
94.16 mins
BSTAR
-0.00076398
Loading maneuver chart data...
Computing Atmospheric mass density...
Loading historical data...
Loading historical data...
Loading historical data...
Loading historical data...
Loading historical data...
Loading historical data...
Loading historical data...

Documentation

Showing up to 5 results
|